This demonstration page uses our WeatherBlox Daily Observations layout. Learn more.

40.92945, -100.16068

Hourly Observations for August 6, 2018

Temp ( °F °C ) Dew Point ( °F °C ) Humidity (%) Winds ( mph kmh ) Pressure ( in mb ) Visibility ( mi km ) Precip ( " mm )
12:15 am 00:15 Clear with Nearby Thunderstorms 70 21.3 68 20.1 93 93 NW 9 15 29.94 1014 5 8.0467 0 0
12:35 am 00:35 Mostly Cloudy with Light Thunderstorms 71 21.8 69 20.6 93 93 N 17 28 29.97 1015 7 11.26538 0 0
12:55 am 00:55 Cloudy with Thunderstorms 72 22 69 20.5 91 91 NNW 5 7 29.97 1015 5 8.0467 0.01 0.254
1:15 am 01:15 Cloudy with Heavy Thunderstorms 70 21.3 68 19.8 91 91 SW 9 15 30 1016 2.5 4.02335 0.31 7.874
1:35 am 01:35 Cloudy with Light Thunderstorms 70 21.3 69 20.3 94 94 SE 12 19 29.94 1014 2.5 4.02335 0.48 12.192
1:55 am 01:55 Mostly Cloudy with Light Rain 70 21.2 68 19.8 92 92 SE 16 26 29.91 1013 10 16.0934 0.49 12.446
2:15 am 02:15 Partly Cloudy with Nearby Thunderstorms 70 21.2 65 18.6 85 85 SE 14 22 29.91 1013 10 16.0934 0 0
2:35 am 02:35 Clear 70 21.2 67 19.6 91 91 SSE 17 28 29.94 1014 10 16.0934 0 0
2:55 am 02:55 Clear 70 21.1 66 18.9 87 87 SE 8 13 29.94 1014 10 16.0934 0 0
3:15 am 03:15 Clear 71 21.4 66 18.7 85 85 N 8 13 29.94 1014 10 16.0934 0 0
3:35 am 03:35 Clear 70 21 67 19.2 90 90 E 5 7 29.94 1014 10 16.0934 0 0
3:55 am 03:55 Clear 69 20.5 67 19.2 92 92 ENE 3 6 29.94 1014 10 16.0934 0 0
4:15 am 04:15 Clear 68 20.1 66 18.7 92 92 N 5 7 29.97 1015 10 16.0934 0 0
4:35 am 04:35 Clear 68 20 66 18.8 93 93 NW 7 11 29.97 1015 10 16.0934 0 0
4:55 am 04:55 Partly Cloudy 68 20 65 18.6 92 92 Calm 29.97 1015 10 16.0934 0 0
5:15 am 05:15 Clear 67 19.7 65 18.4 92 92 E 3 6 29.97 1015 10 16.0934 0 0
5:35 am 05:35 Clear 67 19.7 65 18.2 91 91 SE 8 13 29.94 1014 10 16.0934 0 0
5:55 am 05:55 Clear 67 19.7 64 17.8 89 89 N 6 9 29.97 1015 10 16.0934 0 0
6:15 am 06:15 Clear 66 19 64 17.7 92 92 N 6 9 29.97 1015 10 16.0934 0 0
6:35 am 06:35 Clear 66 19 64 18 94 94 Calm 29.97 1015 10 16.0934 0 0
6:55 am 06:55 Partly Cloudy 66 19 64 18 94 94 Calm 29.97 1015 7 11.26538 0 0
7:15 am 07:15 Partly Cloudy 66 19.1 64 18 93 93 ENE 5 7 29.97 1015 7 11.26538 0 0
7:35 am 07:35 Sunny 67 19.3 65 18.2 93 93 NNE 6 9 29.97 1015 7 11.26538 0 0
7:55 am 07:55 Sunny 67 19.5 65 18.5 94 94 NE 7 11 29.97 1015 7 11.26538 0 0
8:15 am 08:15 Sunny 69 20.3 66 19 92 92 N 8 13 29.94 1014 7 11.26538 0 0
8:35 am 08:35 Sunny 69 20.7 66 18.8 89 89 N 7 11 29.94 1014 10 16.0934 0 0
8:55 am 08:55 Partly Cloudy 70 20.9 66 18.9 88 88 N 8 13 29.97 1015 10 16.0934 0 0
9:15 am 09:15 Partly Cloudy 70 20.9 67 19.4 91 91 NNE 6 9 29.97 1015 7 11.26538 0 0
9:35 am 09:35 Partly Cloudy 71 21.8 67 19.5 87 87 NE 9 15 29.97 1015 10 16.0934 0 0
9:55 am 09:55 Mostly Cloudy 70 21.2 66 19 87 87 NE 8 13 30 1016 10 16.0934 0 0
10:15 am 10:15 Cloudy 71 21.5 66 19 86 86 NNE 8 13 30 1016 10 16.0934 0 0
10:35 am 10:35 Cloudy 72 22.3 67 19.2 83 83 NNE 7 11 30 1016 10 16.0934 0 0
10:55 am 10:55 Cloudy 71 21.9 66 19.1 84 84 NE 10 17 30 1016 10 16.0934 0 0
11:15 am 11:15 Cloudy 72 22.2 66 19 82 82 ENE 9 15 30 1016 10 16.0934 0 0
11:35 am 11:35 Cloudy 73 22.7 67 19.2 81 81 NE 8 13 30 1016 10 16.0934 0 0
11:55 am 11:55 Cloudy 73 22.6 67 19.3 82 82 NE 10 17 29.97 1015 10 16.0934 0 0
12:15 pm 12:15 Mostly Cloudy 74 23.1 67 19.3 79 79 ENE 10 17 29.97 1015 10 16.0934 0 0
12:35 pm 12:35 Mostly Cloudy 75 23.8 67 19.5 77 77 ENE 7 11 29.97 1015 10 16.0934 0 0
12:55 pm 12:55 Cloudy 76 24.3 67 19.6 75 75 E 6 9 29.94 1014 10 16.0934 0 0
1:15 pm 13:15 Mostly Cloudy 76 24.7 67 19.7 74 74 E 6 9 29.94 1014 10 16.0934 0 0
1:35 pm 13:35 Mostly Cloudy 79 25.9 68 20 70 70 ENE 9 15 29.91 1013 10 16.0934 0 0
1:55 pm 13:55 Mostly Cloudy with Nearby Thunderstorms 79 26.2 68 19.9 68 68 ENE 9 15 29.91 1013 10 16.0934 0 0
2:15 pm 14:15 Cloudy 79 25.9 68 20.1 70 70 E 10 17 29.94 1014 10 16.0934 0 0
2:35 pm 14:35 Cloudy 80 26.5 68 20 68 68 E 7 11 29.91 1013 10 16.0934 0 0
2:55 pm 14:55 Mostly Cloudy 80 26.7 68 19.8 66 66 E 8 13 29.91 1013 10 16.0934 0 0
3:15 pm 15:15 Mostly Cloudy with Nearby Thunderstorms 80 26.8 67 19.7 65 65 E 9 15 29.91 1013 10 16.0934 0 0
3:35 pm 15:35 Cloudy with Thunderstorms 81 27.1 68 19.9 65 65 E 8 13 29.91 1013 10 16.0934 0 0
3:55 pm 15:55 Cloudy with Nearby Thunderstorms 80 26.7 68 19.8 66 66 ENE 8 13 29.91 1013 10 16.0934 0 0
4:15 pm 16:15 Cloudy 79 26.2 68 20 69 69 ENE 7 11 29.91 1013 10 16.0934 0 0
4:35 pm 16:35 Cloudy 79 26.1 68 20.2 70 70 ENE 6 9 29.91 1013 10 16.0934 0 0
4:55 pm 16:55 Cloudy 80 26.5 69 20.3 69 69 E 7 11 29.91 1013 10 16.0934 0 0
5:15 pm 17:15 Cloudy 80 26.8 69 20.8 70 70 E 8 13 29.91 1013 10 16.0934 0 0
5:35 pm 17:35 Partly Cloudy 80 26.8 69 20.4 68 68 ENE 8 13 29.91 1013 10 16.0934 0 0
5:55 pm 17:55 Mostly Cloudy 80 26.5 69 20.7 71 71 ENE 7 11 29.91 1013 10 16.0934 0 0
6:15 pm 18:15 Cloudy 79 26.2 69 20.8 72 72 ENE 6 9 29.91 1013 10 16.0934 0 0
6:35 pm 18:35 Cloudy 80 26.5 69 20.8 71 71 NE 6 9 29.91 1013 10 16.0934 0 0
6:55 pm 18:55 Cloudy 78 25.8 70 21.1 75 75 NNE 9 15 29.91 1013 10 16.0934 0 0
7:15 pm 19:15 Cloudy 77 25 70 21 79 79 N 5 7 29.91 1013 10 16.0934 0 0
7:35 pm 19:35 Cloudy 76 24.5 69 20.6 79 79 NE 7 11 29.94 1014 10 16.0934 0 0
7:55 pm 19:55 Cloudy 75 24 69 20.6 81 81 NE 6 9 29.94 1014 10 16.0934 0 0
8:15 pm 20:15 Partly Cloudy 74 23.5 69 20.3 82 82 E 7 11 29.94 1014 10 16.0934 0 0
8:35 pm 20:35 Partly Cloudy 74 23.1 68 20.2 84 84 NNE 5 7 29.97 1015 10 16.0934 0 0
8:55 pm 20:55 Mostly Cloudy 73 22.5 69 20.5 89 89 N 6 9 29.97 1015 10 16.0934 0 0
9:15 pm 21:15 Mostly Cloudy 72 22.3 69 20.3 89 89 N 5 7 29.97 1015 10 16.0934 0 0
9:35 pm 21:35 Clear 71 21.9 69 20.5 92 92 NE 5 7 29.97 1015 10 16.0934 0 0
9:55 pm 21:55 Clear 71 21.7 69 20.5 93 93 ESE 3 6 29.94 1014 7 11.26538 0 0
10:15 pm 22:15 Clear 72 22 68 19.8 87 87 Calm 29.94 1014 10 16.0934 0 0
10:35 pm 22:35 Clear 71 21.7 68 20 90 90 ENE 3 6 29.94 1014 10 16.0934 0 0
10:55 pm 22:55 Clear 70 21.2 67 19.7 91 91 Calm 29.97 1015 7 11.26538 0 0
11:15 pm 23:15 Clear 69 20.7 67 19.6 93 93 Calm 29.97 1015 7 11.26538 0 0
11:35 pm 23:35 Clear 69 20.4 67 19.2 93 93 Calm 30 1016 7 11.26538 0 0
11:55 pm 23:55 Clear 68 20.1 66 19 93 93 Calm 30 1016 7 11.26538 0 0

Powered by AerisWeather